CW2401 Weather Reports


time (UTC)temp
C
wind
direction
speed
KPH
gust
KPH
rain 1hr
cm
rain 24hr
cm
rain mn
cm
humidity
%
barometer
mb
20260510162707 26 350 1.6 9.7 0.00 0.00 0.00 47 1016.6
20260510162505 26 103 1.6 4.8 0.00 0.00 0.00 46 1016.6
20260510162306 26 103 1.6 8.0 0.00 0.00 0.00 46 1016.5
20260510162103 26 94 1.6 8.0 0.00 0.00 0.00 43 1016.6
20260510161900 26 67 3.2 8.0 0.00 0.00 0.00 44 1016.7
20260510161500 26 271 3.2 8.0 0.00 0.00 0.00 41 1016.7
20260510160859 26 114 1.6 4.8 0.00 0.00 0.00 45 1016.7
20260510160659 26 115 1.6 6.4 0.00 0.00 0.00 43 1016.7
20260510160501 26 116 1.6 6.4 0.00 0.00 0.00 45 1016.7
20260510160101 26 115 1.6 6.4 0.00 0.00 0.00 50 1016.7
20260510155859 26 115 1.6 6.4 0.00 0.00 0.00 46 1016.7
20260510155700 26 198 1.6 6.4 0.00 0.00 0.00 49 1016.7
20260510155457 26 115 1.6 6.4 0.00 0.00 0.00 48 1016.7
20260510155258 26 198 1.6 9.7 0.00 0.00 0.00 51 1016.7
20260510155057 26 240 1.6 9.7 0.00 0.00 0.00 50 1016.7
20260510154858 26 170 1.6 9.7 0.00 0.00 0.00 48 1016.6
20260510154658 26 291 3.2 9.7 0.00 0.00 0.00 52 1016.7
20260510154456 26 153 3.2 9.7 0.00 0.00 0.00 48 1016.7
20260510154255 26 316 1.6 8.0 0.00 0.00 0.00 49 1016.7
20260510154053 26 355 3.2 8.0 0.00 0.00 0.00 49 1016.8
20260510153851 26 355 3.2 9.7 0.00 0.00 0.00 48 1016.8
20260510153653 26 168 3.2 9.7 0.00 0.00 0.00 49 1016.8
20260510153451 26 93 3.2 9.7 0.00 0.00 0.00 48 1016.8
20260510153249 26 41 3.2 9.7 0.00 0.00 0.00 47 1016.8
20260510153049 25 0 3.2 9.7 0.00 0.00 0.00 50 1016.8
20260510152847 25 5 3.2 8.0 0.00 0.00 0.00 50 1016.8
20260510152447 25 300 3.2 8.0 0.00 0.00 0.00 48 1016.9
20260510152247 25 107 3.2 6.4 0.00 0.00 0.00 48 1016.9
20260510152047 25 107 3.2 8.0 0.00 0.00 0.00 50 1017.0
20260510151847 25 178 3.2 9.7 0.00 0.00 0.00 52 1017.0
20260510151648 25 176 3.2 9.7 0.00 0.00 0.00 54 1017.0
20260510151447 25 11 3.2 9.7 0.00 0.00 0.00 52 1017.0
20260510151244 25 342 3.2 9.7 0.00 0.00 0.00 52 1017.0
20260510151045 25 269 1.6 9.7 0.00 0.00 0.00 53 1017.0
20260510150845 25 345 1.6 9.7 0.00 0.00 0.00 55 1017.0
20260510150645 25 234 1.6 6.4 0.00 0.00 0.00 55 1016.9
20260510150046 25 144 1.6 4.8 0.00 0.00 0.00 54 1016.9
20260510145644 25 144 1.6 4.8 0.00 0.00 0.00 54 1016.8
20260510145444 25 144 1.6 4.8 0.00 0.00 0.00 54 1016.8
20260510145244 25 87 3.2 6.4 0.00 0.00 0.00 55 1016.8
20260510145045 25 36 3.2 6.4 0.00 0.00 0.00 55 1016.8
20260510144842 25 355 3.2 6.4 0.00 0.00 0.00 54 1016.8
20260510144643 25 336 1.6 6.4 0.00 0.00 0.00 56 1016.8
20260510144443 25 333 1.6 6.4 0.00 0.00 0.00 56 1016.8
20260510144244 25 313 1.6 6.4 0.00 0.00 0.00 57 1016.7
20260510144044 24 304 1.6 4.8 0.00 0.00 0.00 61 1016.7
20260510143843 24 206 1.6 4.8 0.00 0.00 0.00 59 1016.7
20260510143644 24 207 1.6 4.8 0.00 0.00 0.00 61 1016.8
20260510143241 24 326 1.6 6.4 0.00 0.00 0.00 64 1016.8
20260510142842 24 323 1.6 6.4 0.00 0.00 0.00 63 1016.8
20260510142638 24 323 1.6 6.4 0.00 0.00 0.00 62 1016.8
20260510141834 23 11 1.6 4.8 0.00 0.00 0.00 68 1016.7
20260510141634 23 11 1.6 4.8 0.00 0.00 0.00 68 1016.7
20260510141434 23 12 3.2 4.8 0.00 0.00 0.00 69 1016.7
20260510141232 23 12 1.6 4.8 0.00 0.00 0.00 68 1016.7
20260510141034 23 5 1.6 6.4 0.00 0.00 0.00 69 1016.8
20260510140832 22 0 1.6 6.4 0.00 0.00 0.00 70 1016.7
20260510140632 22 0 1.6 6.4 0.00 0.00 0.00 72 1016.7
20260510140432 22 0 1.6 6.4 0.00 0.00 0.00 76 1016.7
20260510140230 22 5 1.6 6.4 0.00 0.00 0.00 77 1016.8
20260510140029 22 15 1.6 6.4 0.00 0.00 0.00 77 1016.8
20260510135828 21 15 1.6 6.4 0.00 0.00 0.00 78 1016.8
20260510135623 21 323 1.6 6.4 0.00 0.00 0.00 76 1016.8
20260510135422 21 323 1.6 6.4 0.00 0.00 0.00 77 1016.7
20260510135222 21 321 1.6 6.4 0.00 0.00 0.00 80 1016.7
20260510135023 20 327 0.0 6.4 0.00 0.00 0.00 83 1016.7
20260510134220 20 355 0.0 1.6 0.00 0.00 0.00 86 1016.8
20260510134017 20 355 0.0 1.6 0.00 0.00 0.00 87 1016.8
20260510133613 19 355 1.6 4.8 0.00 0.00 0.00 87 1016.8
20260510133413 19 355 1.6 4.8 0.00 0.00 0.00 86 1016.8
20260510133211 19 355 1.6 4.8 0.00 0.00 0.00 87 1016.8
20260510133010 19 355 1.6 6.4 0.00 0.00 0.00 87 1016.8
20260510132811 18 355 1.6 6.4 0.00 0.00 0.00 87 1016.8
20260510132409 18 53 0.0 6.4 0.00 0.00 0.00 89 1016.8
20260510132208 18 5 0.0 6.4 0.00 0.00 0.00 91 1016.8
20260510132008 17 327 0.0 4.8 0.00 0.00 0.00 93 1016.8
20260510131810 17 11 0.0 3.2 0.00 0.00 0.00 93 1016.8
20260510131610 17 11 0.0 3.2 0.00 0.00 0.00 93 1016.7
20260510131206 17 11 0.0 4.8 0.00 0.00 0.00 94 1016.6
20260510131003 16 11 0.0 4.8 0.00 0.00 0.00 94 1016.6
20260510130803 16 11 0.0 4.8 0.00 0.00 0.00 94 1016.6
20260510130603 16 11 0.0 4.8 0.00 0.00 0.00 94 1016.6
20260510130403 16 11 0.0 4.8 0.00 0.00 0.00 95 1016.6
20260510130202 16 22 0.0 1.6 0.00 0.00 0.00 95 1016.6
20260510125959 16 21 0.0 1.6 0.00 0.00 0.00 95 1016.6
20260510125757 16 69 0.0 0.0 0.00 0.00 0.00 95 1016.5
20260510125355 16 74 0.0 0.0 0.00 0.00 0.00 95 1016.5
20260510125153 15 78 0.0 0.0 0.00 0.00 0.00 95 1016.5
20260510124953 15 78 0.0 0.0 0.00 0.00 0.00 95 1016.4
20260510124754 15 78 0.0 0.0 0.00 0.00 0.00 95 1016.4
20260510124552 15 78 0.0 0.0 0.00 0.00 0.00 95 1016.4
20260510124351 15 78 0.0 0.0 0.00 0.00 0.00 95 1016.4
20260510124149 15 78 0.0 0.0 0.00 0.00 0.00 95 1016.4
20260510123950 15 78 0.0 0.0 0.00 0.00 0.00 95 1016.4
20260510123750 15 78 0.0 0.0 0.00 0.00 0.00 94 1016.4
20260510123346 14 78 0.0 0.0 0.00 0.00 0.00 95 1016.3
20260510123146 14 78 0.0 0.0 0.00 0.00 0.00 95 1016.2
20260510122743 14 78 0.0 0.0 0.00 0.00 0.00 94 1016.2
20260510122544 14 78 0.0 0.0 0.00 0.00 0.00 94 1016.2
20260510122342 14 78 0.0 0.0 0.00 0.00 0.00 94 1016.2
20260510122144 13 78 0.0 0.0 0.00 0.00 0.00 94 1016.1
20260510121942 13 78 0.0 0.0 0.00 0.00 0.00 94 1016.1
20260510121744 13 78 0.0 0.0 0.00 0.00 0.00 94 1015.9
20260510121542 13 78 0.0 0.0 0.00 0.00 0.00 94 1015.9
20260510121341 13 78 0.0 0.0 0.00 0.00 0.00 94 1015.9
20260510121140 13 78 0.0 0.0 0.00 0.00 0.00 94 1015.9
20260510120939 13 78 0.0 0.0 0.00 0.00 0.00 94 1015.8
20260510120738 13 78 0.0 0.0 0.00 0.00 0.00 94 1015.7
20260510120538 13 78 0.0 0.0 0.00 0.00 0.00 94 1015.8
20260510115937 13 78 0.0 0.0 0.00 0.00 0.00 94 1015.8
20260510115538 13 78 0.0 0.0 0.00 0.00 0.00 93 1015.7
20260510115337 13 78 0.0 0.0 0.00 0.00 0.00 93 1015.8
20260510115132 13 78 0.0 0.0 0.00 0.00 0.00 93 1015.8
20260510114934 13 78 0.0 0.0 0.00 0.00 0.00 93 1015.8
20260510114730 13 78 0.0 0.0 0.00 0.00 0.00 93 1015.7
20260510114330 13 78 0.0 0.0 0.00 0.00 0.00 93 1015.7
20260510114130 13 78 0.0 0.0 0.00 0.00 0.00 93 1015.7
20260510113927 13 78 0.0 0.0 0.00 0.00 0.00 93 1015.7
20260510113726 13 78 0.0 0.0 0.00 0.00 0.00 93 1015.7
20260510113525 13 78 0.0 0.0 0.00 0.00 0.00 93 1015.6
20260510113325 13 78 0.0 0.0 0.00 0.00 0.00 93 1015.6
20260510113125 13 78 0.0 0.0 0.00 0.00 0.00 93 1015.6
20260510112926 13 78 0.0 0.0 0.00 0.00 0.00 93 1015.6
20260510112724 13 78 0.0 0.0 0.00 0.00 0.00 93 1015.6
20260510112522 13 78 0.0 0.0 0.00 0.00 0.00 93 1015.6
20260510112325 13 78 0.0 0.0 0.00 0.00 0.00 93 1015.5
20260510112121 13 78 0.0 0.0 0.00 0.00 0.00 93 1015.5
20260510111922 13 78 0.0 0.0 0.00 0.00 0.00 93 1015.4
20260510111721 13 78 0.0 0.0 0.00 0.00 0.00 93 1015.3
20260510111321 13 78 0.0 0.0 0.00 0.00 0.00 93 1015.3
20260510111122 13 78 0.0 0.0 0.00 0.00 0.00 93 1015.2
20260510110920 13 78 0.0 0.0 0.00 0.00 0.00 93 1015.2
20260510110718 13 78 0.0 0.0 0.00 0.00 0.00 93 1015.2
20260510110518 13 78 0.0 0.0 0.00 0.00 0.00 93 1015.1
20260510110319 13 78 0.0 0.0 0.00 0.00 0.00 93 1015.1
20260510105919 13 78 0.0 0.0 0.00 0.00 0.00 93 1015.0
20260510105720 13 78 0.0 0.0 0.00 0.00 0.00 93 1015.0
20260510105518 13 78 0.0 0.0 0.00 0.00 0.00 93 1015.0
20260510105318 13 78 0.0 0.0 0.00 0.00 0.00 93 1014.9
20260510105117 13 78 0.0 0.0 0.00 0.00 0.00 93 1014.9
20260510104716 13 78 0.0 0.0 0.00 0.00 0.00 93 1014.7
20260510104517 13 78 0.0 0.0 0.00 0.00 0.00 93 1014.7
20260510104319 13 78 0.0 0.0 0.00 0.00 0.00 93 1014.7
20260510104114 13 78 0.0 0.0 0.00 0.00 0.00 93 1014.7
20260510103914 13 78 0.0 0.0 0.00 0.00 0.00 93 1014.7
20260510103715 13 78 0.0 0.0 0.00 0.00 0.00 93 1014.6
20260510103515 13 78 0.0 0.0 0.00 0.00 0.00 93 1014.6
20260510103315 13 78 0.0 0.0 0.00 0.00 0.00 93 1014.5
20260510103115 13 78 0.0 0.0 0.00 0.00 0.00 93 1014.5
20260510102914 13 78 0.0 0.0 0.00 0.00 0.00 93 1014.5
20260510102513 13 78 0.0 0.0 0.00 0.00 0.00 93 1014.4
20260510102313 13 78 0.0 0.0 0.00 0.00 0.00 93 1014.4
20260510101913 13 78 0.0 0.0 0.00 0.00 0.00 93 1014.2
20260510101713 13 78 0.0 0.0 0.00 0.00 0.00 93 1014.3
20260510101312 13 78 0.0 0.0 0.00 0.00 0.00 93 1014.2
20260510101113 13 78 0.0 0.0 0.00 0.00 0.00 93 1014.1
20260510100709 13 78 0.0 0.0 0.00 0.00 0.00 93 1014.2
20260510100509 13 78 0.0 0.0 0.00 0.00 0.00 93 1014.2
20260510100108 13 78 0.0 0.0 0.00 0.00 0.00 93 1014.1
20260510095909 13 78 0.0 0.0 0.00 0.00 0.00 93 1014.0
20260510095706 13 78 0.0 0.0 0.00 0.00 0.00 93 1014.0
20260510095508 13 78 0.0 0.0 0.00 0.00 0.00 93 1014.0
20260510095308 13 78 0.0 0.0 0.00 0.00 0.00 93 1014.0
20260510095107 13 78 0.0 0.0 0.00 0.00 0.00 93 1013.9
20260510094906 13 78 0.0 0.0 0.00 0.00 0.00 93 1014.0
20260510094706 13 78 0.0 0.0 0.00 0.00 0.00 93 1013.9
20260510094507 13 78 0.0 0.0 0.00 0.00 0.00 93 1013.9
20260510094307 13 78 0.0 0.0 0.00 0.00 0.00 93 1013.8
20260510094108 13 78 0.0 0.0 0.00 0.00 0.00 93 1013.8
20260510093909 13 78 0.0 0.0 0.00 0.00 0.00 93 1013.8
20260510093707 13 78 0.0 0.0 0.00 0.00 0.00 93 1013.8
20260510093508 13 78 0.0 0.0 0.00 0.00 0.00 93 1013.8
20260510093308 13 78 0.0 0.0 0.00 0.00 0.00 93 1013.8
20260510093107 13 78 0.0 0.0 0.00 0.00 0.00 93 1013.8
20260510092907 13 78 0.0 0.0 0.00 0.00 0.00 93 1013.8
20260510092508 13 78 0.0 0.0 0.00 0.00 0.00 93 1013.8
20260510092307 13 78 0.0 0.0 0.00 0.00 0.00 93 1013.8
20260510092107 13 78 0.0 0.0 0.00 0.00 0.00 93 1013.8
20260510091909 13 78 0.0 0.0 0.00 0.00 0.00 93 1013.8
20260510091707 13 78 0.0 0.0 0.00 0.00 0.00 93 1013.7
20260510091507 13 78 0.0 0.0 0.00 0.00 0.00 93 1013.7
20260510091306 13 78 0.0 0.0 0.00 0.00 0.00 93 1013.6
20260510091106 13 78 0.0 0.0 0.00 0.00 0.00 93 1013.6
20260510090906 13 78 0.0 0.0 0.00 0.00 0.00 93 1013.7
20260510090708 13 78 0.0 0.0 0.00 0.00 0.00 93 1013.7
20260510090507 13 78 0.0 0.0 0.00 0.00 0.00 93 1013.6
20260510090306 13 78 0.0 0.0 0.00 0.00 0.00 93 1013.7
20260510090108 13 78 0.0 0.0 0.00 0.00 0.00 93 1013.7
20260510085906 13 78 0.0 0.0 0.00 0.00 0.00 93 1013.6
20260510085706 13 78 0.0 0.0 0.00 0.00 0.00 93 1013.6
20260510085506 13 78 0.0 0.0 0.00 0.00 0.00 93 1013.6
20260510084907 13 78 0.0 0.0 0.00 0.00 0.00 93 1013.4
20260510084706 13 78 0.0 0.0 0.00 0.00 0.00 93 1013.4
20260510084506 14 78 0.0 0.0 0.00 0.00 0.00 93 1013.4
20260510084309 14 78 0.0 0.0 0.00 0.00 0.00 93 1013.4
20260510084109 14 78 0.0 0.0 0.00 0.00 0.00 93 1013.3
20260510083906 14 78 0.0 0.0 0.00 0.00 0.00 93 1013.3
20260510083705 14 78 0.0 0.0 0.00 0.00 0.00 93 1013.3
20260510083504 14 78 0.0 0.0 0.00 0.00 0.00 93 1013.3
20260510083304 14 78 0.0 0.0 0.00 0.00 0.00 93 1013.2
20260510083106 14 78 0.0 0.0 0.00 0.00 0.00 93 1013.3
20260510082906 14 78 0.0 0.0 0.00 0.00 0.00 93 1013.2
20260510082705 14 78 0.0 0.0 0.00 0.00 0.00 93 1013.2
20260510082505 14 78 0.0 0.0 0.00 0.00 0.00 93 1013.3
20260510082306 14 78 0.0 0.0 0.00 0.00 0.00 93 1013.3
20260510082105 14 78 0.0 0.0 0.00 0.00 0.00 93 1013.3
20260510081704 14 78 0.0 0.0 0.00 0.00 0.00 93 1013.3
20260510081504 14 78 0.0 0.0 0.00 0.00 0.00 93 1013.3
20260510081305 14 78 0.0 0.0 0.00 0.00 0.00 93 1013.2
20260510081104 14 78 0.0 0.0 0.00 0.00 0.00 93 1013.2
20260510080907 14 78 0.0 0.0 0.00 0.00 0.00 93 1013.2
20260510080702 14 78 0.0 0.0 0.00 0.00 0.00 93 1013.2
20260510080459 14 78 0.0 0.0 0.00 0.00 0.00 93 1013.2
20260510080258 14 78 0.0 0.0 0.00 0.00 0.00 93 1013.2
20260510080057 14 78 0.0 0.0 0.00 0.00 0.00 93 1013.2
20260510075856 14 78 0.0 0.0 0.00 0.00 0.00 93 1013.2
20260510075656 14 78 0.0 0.0 0.00 0.00 0.00 93 1013.2
20260510075456 14 78 0.0 0.0 0.00 0.00 0.00 93 1013.3
20260510075054 14 78 0.0 0.0 0.00 0.00 0.00 93 1013.3
20260510074852 14 78 0.0 0.0 0.00 0.00 0.00 93 1013.3
20260510074448 14 78 0.0 0.0 0.00 0.00 0.00 93 1013.3
20260510074248 14 78 0.0 0.0 0.00 0.00 0.00 93 1013.4
20260510074047 14 78 0.0 0.0 0.00 0.00 0.00 93 1013.4
20260510073843 14 78 0.0 0.0 0.00 0.00 0.00 93 1013.4
20260510073642 14 78 0.0 0.0 0.00 0.00 0.00 93 1013.3
20260510073440 14 78 0.0 0.0 0.00 0.00 0.00 93 1013.2
20260510073238 14 78 0.0 0.0 0.00 0.00 0.00 93 1013.2
20260510073039 14 78 0.0 0.0 0.00 0.00 0.00 92 1013.1
20260510072840 14 78 0.0 0.0 0.00 0.00 0.00 93 1013.1
20260510072638 14 78 0.0 0.0 0.00 0.00 0.00 93 1013.1
20260510072034 14 78 0.0 0.0 0.00 0.00 0.00 92 1013.1
20260510071634 14 78 0.0 0.0 0.00 0.00 0.00 92 1013.0
20260510071435 14 78 0.0 0.0 0.00 0.00 0.00 92 1013.0
20260510071234 14 78 0.0 0.0 0.00 0.00 0.00 92 1013.0
20260510071034 14 78 0.0 0.0 0.00 0.00 0.00 92 1013.1
20260510070834 14 78 0.0 0.0 0.00 0.00 0.00 92 1013.1
20260510070634 14 78 0.0 0.0 0.00 0.00 0.00 92 1013.0
20260510070433 14 78 0.0 0.0 0.00 0.00 0.00 92 1013.0
20260510070033 14 78 0.0 0.0 0.00 0.00 0.00 92 1012.9
20260510065832 14 78 0.0 0.0 0.00 0.00 0.00 92 1012.9
20260510065633 14 78 0.0 0.0 0.00 0.00 0.00 92 1012.9
20260510065432 14 78 0.0 0.0 0.00 0.00 0.00 92 1012.8
20260510065231 14 78 0.0 0.0 0.00 0.00 0.00 92 1012.9
20260510065030 14 78 0.0 0.0 0.00 0.00 0.00 92 1012.9
20260510064829 14 78 0.0 0.0 0.00 0.00 0.00 92 1013.0
20260510064427 14 78 0.0 0.0 0.00 0.00 0.00 92 1013.0
20260510064227 14 78 0.0 0.0 0.00 0.00 0.00 92 1013.0
20260510064024 14 78 0.0 0.0 0.00 0.00 0.00 93 1013.0
20260510063822 14 78 0.0 0.0 0.00 0.00 0.00 93 1013.0
20260510063621 14 78 0.0 0.0 0.00 0.00 0.00 92 1013.0
20260510063420 14 78 0.0 0.0 0.00 0.00 0.00 93 1013.0
20260510063218 14 78 0.0 0.0 0.00 0.00 0.00 93 1013.0
20260510063018 14 78 0.0 0.0 0.00 0.00 0.00 92 1012.9
20260510062816 14 78 0.0 0.0 0.00 0.00 0.00 92 1012.9
20260510062616 14 78 0.0 0.0 0.00 0.00 0.00 92 1012.9
20260510062413 14 78 0.0 0.0 0.00 0.00 0.00 92 1012.9
20260510062210 14 78 0.0 0.0 0.00 0.00 0.00 92 1012.8
20260510062012 14 78 0.0 0.0 0.00 0.00 0.00 92 1012.8
20260510061808 14 78 0.0 0.0 0.00 0.00 0.00 92 1012.7
20260510061203 14 78 0.0 0.0 0.00 0.00 0.00 92 1012.8
20260510061002 14 78 0.0 0.0 0.00 0.00 0.00 92 1012.8
20260510060800 14 78 0.0 0.0 0.00 0.00 0.00 92 1012.8
20260510060558 14 78 0.0 0.0 0.00 0.00 0.00 92 1012.9
20260510060154 15 78 0.0 0.0 0.00 0.00 0.00 92 1013.0
20260510055954 15 78 0.0 0.0 0.00 0.00 0.00 92 1013.1
20260510055752 15 78 0.0 0.0 0.00 0.00 0.00 92 1013.2
20260510055550 15 78 0.0 0.0 0.00 0.00 0.00 92 1013.2
20260510055348 15 78 0.0 0.0 0.00 0.00 0.00 92 1013.2
20260510055148 15 78 0.0 0.0 0.00 0.00 0.00 92 1013.2
20260510054947 15 78 0.0 0.0 0.00 0.00 0.00 92 1013.2
20260510054746 15 78 0.0 0.0 0.00 0.00 0.00 92 1013.2
20260510054343 15 78 0.0 0.0 0.00 0.00 0.00 92 1013.2
20260510053940 15 78 0.0 0.0 0.00 0.00 0.00 92 1013.3
20260510053742 15 78 0.0 0.0 0.00 0.00 0.00 92 1013.3
20260510053540 15 78 0.0 0.0 0.00 0.00 0.00 92 1013.3
20260510053342 15 78 0.0 0.0 0.00 0.00 0.00 92 1013.3
20260510053138 15 78 0.0 0.0 0.00 0.00 0.00 92 1013.3
20260510052941 15 78 0.0 0.0 0.00 0.00 0.00 92 1013.3
20260510052737 15 78 0.0 0.0 0.00 0.00 0.00 92 1013.4
20260510052536 15 78 0.0 0.0 0.00 0.00 0.00 92 1013.4
20260510052337 15 78 0.0 0.0 0.00 0.00 0.00 92 1013.4
20260510052136 15 78 0.0 0.0 0.00 0.00 0.00 92 1013.5
20260510051937 15 78 0.0 0.0 0.00 0.00 0.00 92 1013.5
20260510051736 15 78 0.0 0.0 0.00 0.00 0.00 92 1013.5
20260510051534 15 78 0.0 0.0 0.00 0.00 0.00 92 1013.5
20260510051336 15 78 0.0 0.0 0.00 0.00 0.00 92 1013.5
20260510051134 15 78 0.0 0.0 0.00 0.00 0.00 92 1013.5
20260510050733 15 78 0.0 0.0 0.00 0.00 0.00 92 1013.6
20260510050530 15 78 0.0 0.0 0.00 0.00 0.00 92 1013.7
20260510050326 15 78 0.0 0.0 0.00 0.00 0.00 92 1013.6
20260510050126 15 78 0.0 0.0 0.00 0.00 0.00 92 1013.7
20260510045925 15 78 0.0 0.0 0.00 0.00 0.00 92 1013.7
20260510045723 15 78 0.0 0.0 0.00 0.00 0.00 92 1013.6
20260510045521 15 78 0.0 0.0 0.00 0.00 0.00 92 1013.6
20260510045320 15 78 0.0 0.0 0.00 0.00 0.00 92 1013.6
20260510045120 15 78 0.0 0.0 0.00 0.00 0.00 92 1013.6
20260510044921 15 78 0.0 0.0 0.00 0.00 0.00 92 1013.6
20260510044720 15 78 0.0 0.0 0.00 0.00 0.00 92 1013.6
20260510044516 15 78 0.0 0.0 0.00 0.00 0.00 92 1013.6
20260510044314 15 78 0.0 0.0 0.00 0.00 0.00 92 1013.7
20260510043913 15 78 0.0 0.0 0.00 0.00 0.00 92 1013.7
20260510043713 15 78 0.0 0.0 0.00 0.00 0.00 92 1013.7
20260510043310 15 78 0.0 0.0 0.00 0.00 0.00 92 1013.5
20260510043111 15 78 0.0 0.0 0.00 0.00 0.00 92 1013.5
20260510042909 15 78 0.0 0.0 0.00 0.00 0.00 92 1013.5
20260510042706 15 78 0.0 0.0 0.00 0.00 0.00 92 1013.5
20260510042504 15 78 0.0 0.0 0.00 0.00 0.00 91 1013.5
20260510042305 15 78 0.0 0.0 0.00 0.00 0.00 91 1013.5
20260510042102 15 78 0.0 0.0 0.00 0.00 0.00 91 1013.6
20260510041900 15 78 0.0 0.0 0.00 0.00 0.00 91 1013.5
20260510041659 15 78 0.0 0.0 0.00 0.00 0.00 91 1013.4
20260510041459 15 78 0.0 0.0 0.00 0.00 0.00 91 1013.4
20260510041058 15 78 0.0 0.0 0.00 0.00 0.00 91 1013.4
20260510040856 15 78 0.0 0.0 0.00 0.00 0.00 91 1013.4
20260510040654 15 78 0.0 0.0 0.00 0.00 0.00 91 1013.5
20260510040452 15 78 0.0 0.0 0.00 0.00 0.00 92 1013.5
20260510040052 15 78 0.0 0.0 0.00 0.00 0.00 92 1013.5
20260510035849 15 78 0.0 0.0 0.00 0.00 0.00 92 1013.5
20260510035646 15 78 0.0 0.0 0.00 0.00 0.00 92 1013.5
20260510035443 15 78 0.0 0.0 0.00 0.00 0.00 92 1013.5
20260510035244 15 78 0.0 0.0 0.00 0.00 0.00 92 1013.5
20260510035041 15 78 0.0 0.0 0.00 0.00 0.00 91 1013.5
20260510034838 15 78 0.0 0.0 0.00 0.00 0.00 91 1013.5
20260510034636 15 78 0.0 0.0 0.00 0.00 0.00 91 1013.5
20260510034434 15 78 0.0 0.0 0.00 0.00 0.00 91 1013.5
20260510034232 15 78 0.0 0.0 0.00 0.00 0.00 91 1013.4
20260510034033 15 78 0.0 0.0 0.00 0.00 0.00 91 1013.4
20260510033832 15 78 0.0 0.0 0.00 0.00 0.00 91 1013.4
20260510033230 15 78 0.0 0.0 0.00 0.00 0.00 91 1013.4
20260510033029 15 78 0.0 0.0 0.00 0.00 0.00 91 1013.4
20260510032828 16 78 0.0 0.0 0.00 0.00 0.00 91 1013.5
20260510032626 16 78 0.0 0.0 0.00 0.00 0.00 91 1013.4
20260510032426 16 78 0.0 0.0 0.00 0.00 0.00 91 1013.4
20260510032226 16 78 0.0 0.0 0.00 0.00 0.00 91 1013.4
20260510032027 16 78 0.0 0.0 0.00 0.00 0.00 91 1013.4
20260510031827 16 78 0.0 0.0 0.00 0.00 0.00 91 1013.4
20260510031426 16 78 0.0 0.0 0.00 0.00 0.00 91 1013.4
20260510031027 16 78 0.0 0.0 0.00 0.00 0.00 91 1013.4
20260510030826 16 78 0.0 0.0 0.00 0.00 0.00 91 1013.5
20260510030425 16 78 0.0 0.0 0.00 0.00 0.00 91 1013.4
20260510030021 16 78 0.0 0.0 0.00 0.00 0.00 91 1013.3
20260510025818 16 78 0.0 0.0 0.00 0.00 0.00 91 1013.3
20260510025619 16 78 0.0 0.0 0.00 0.00 0.00 91 1013.4
20260510025416 16 78 0.0 0.0 0.00 0.00 0.00 91 1013.3
20260510025216 16 78 0.0 0.0 0.00 0.00 0.00 91 1013.3
20260510025014 16 78 0.0 0.0 0.00 0.00 0.00 90 1013.3
20260510024812 16 78 0.0 0.0 0.00 0.00 0.00 90 1013.3
20260510024610 16 78 0.0 0.0 0.00 0.00 0.00 90 1013.3
20260510024411 16 78 0.0 0.0 0.00 0.00 0.00 90 1013.3
20260510024212 16 78 0.0 0.0 0.00 0.00 0.00 90 1013.2
20260510023810 16 78 0.0 0.0 0.00 0.00 0.00 90 1013.2
20260510023608 16 78 0.0 0.0 0.00 0.00 0.00 90 1013.3
20260510023408 16 78 0.0 0.0 0.00 0.00 0.00 90 1013.3
20260510023207 16 78 0.0 0.0 0.00 0.00 0.00 90 1013.3
20260510023008 16 78 0.0 0.0 0.00 0.00 0.00 90 1013.3
20260510022807 16 78 0.0 0.0 0.00 0.00 0.00 90 1013.2
20260510022403 16 78 0.0 0.0 0.00 0.00 0.00 90 1013.2
20260510022202 16 78 0.0 0.0 0.00 0.00 0.00 90 1013.2
20260510022004 16 78 0.0 0.0 0.00 0.00 0.00 90 1013.2
20260510021803 16 78 0.0 0.0 0.00 0.00 0.00 90 1013.2
20260510021600 16 78 0.0 0.0 0.00 0.00 0.00 90 1013.1
20260510021358 16 78 0.0 0.0 0.00 0.00 0.00 90 1013.1
20260510021158 17 78 0.0 0.0 0.00 0.00 0.00 90 1013.1
20260510020956 17 78 0.0 0.0 0.00 0.00 0.00 90 1013.0
20260510020756 17 78 0.0 0.0 0.00 0.00 0.00 89 1013.1
20260510020557 17 78 0.0 0.0 0.00 0.00 0.00 89 1013.2
20260510020356 17 78 0.0 0.0 0.00 0.00 0.00 89 1013.2
20260510020154 17 78 0.0 0.0 0.00 0.00 0.00 89 1013.2
20260510015953 17 78 0.0 0.0 0.00 0.00 0.00 89 1013.2
20260510015752 17 78 0.0 0.0 0.00 0.00 0.00 89 1013.1
20260510015348 17 78 0.0 0.0 0.00 0.00 0.00 89 1013.0
20260510015148 17 78 0.0 0.0 0.00 0.00 0.00 89 1013.0
20260510014947 17 78 0.0 0.0 0.00 0.00 0.00 89 1012.9
20260510014747 17 78 0.0 0.0 0.00 0.00 0.00 89 1012.8
20260510014546 17 78 0.0 0.0 0.00 0.00 0.00 89 1012.7
20260510014146 17 78 0.0 0.0 0.00 0.00 0.00 89 1012.7
20260510013944 17 78 0.0 0.0 0.00 0.00 0.00 89 1012.7
20260510013544 17 78 0.0 0.0 0.00 0.00 0.00 89 1012.7
20260510013344 17 78 0.0 0.0 0.00 0.00 0.00 89 1012.6
20260510013145 17 78 0.0 0.0 0.00 0.00 0.00 89 1012.5
20260510012945 17 78 0.0 0.0 0.00 0.00 0.00 89 1012.5
20260510012742 17 78 0.0 0.0 0.00 0.00 0.00 88 1012.5
20260510012342 17 78 0.0 0.0 0.00 0.00 0.00 88 1012.4
20260510012142 18 78 0.0 0.0 0.00 0.00 0.00 88 1012.4
20260510011742 18 78 0.0 0.0 0.00 0.00 0.00 88 1012.3
20260510011341 18 78 0.0 0.0 0.00 0.00 0.00 87 1012.2
20260510011140 18 78 0.0 0.0 0.00 0.00 0.00 88 1012.1
20260510010940 18 78 0.0 0.0 0.00 0.00 0.00 87 1012.2
20260510010738 18 78 0.0 0.0 0.00 0.00 0.00 87 1012.2
20260510010538 18 78 0.0 0.0 0.00 0.00 0.00 87 1012.2
20260510010338 18 78 0.0 0.0 0.00 0.00 0.00 87 1012.2
20260510010138 18 78 0.0 0.0 0.00 0.00 0.00 87 1012.1
20260510005938 18 78 0.0 0.0 0.00 0.00 0.00 87 1012.1
20260510005737 18 78 0.0 0.0 0.00 0.00 0.00 87 1012.1
20260510005535 18 78 0.0 0.0 0.00 0.00 0.00 86 1012.0
20260510005332 18 78 0.0 0.0 0.00 0.00 0.00 86 1012.0
20260510005130 18 78 0.0 0.0 0.00 0.00 0.00 86 1012.1
20260510004930 19 78 0.0 0.0 0.00 0.00 0.00 86 1012.0
20260510004728 19 78 0.0 0.0 0.00 0.00 0.00 86 1012.0
20260510004526 19 78 0.0 0.0 0.00 0.00 0.00 86 1012.0
20260510004326 19 78 0.0 0.0 0.00 0.00 0.00 85 1012.0
20260510004127 19 78 0.0 0.0 0.00 0.00 0.00 85 1012.0
20260510003924 19 78 0.0 0.0 0.00 0.00 0.00 85 1012.0
20260510003725 19 78 0.0 0.0 0.00 0.00 0.00 85 1012.0
20260510003322 19 78 0.0 0.0 0.00 0.00 0.00 85 1012.1
20260510003118 19 78 0.0 0.0 0.00 0.00 0.00 85 1012.1
20260510002918 20 78 0.0 0.0 0.00 0.00 0.00 85 1012.0
20260510002716 20 78 0.0 0.0 0.00 0.00 0.00 85 1012.0
20260510002514 20 78 0.0 0.0 0.00 0.00 0.00 85 1012.0
20260510002315 20 78 0.0 0.0 0.00 0.00 0.00 84 1012.0
20260510002115 20 78 0.0 0.0 0.00 0.00 0.00 84 1011.9
20260510001913 20 78 0.0 0.0 0.00 0.00 0.00 84 1012.0
20260510001713 20 78 0.0 0.0 0.00 0.00 0.00 84 1011.9
20260510001512 20 78 0.0 0.0 0.00 0.00 0.00 84 1011.9
20260510001309 20 78 0.0 0.0 0.00 0.00 0.00 83 1011.9
20260510001111 20 78 0.0 0.0 0.00 0.00 0.00 83 1011.9
20260510000907 20 78 0.0 0.0 0.00 0.00 0.00 83 1011.9
20260510000707 20 78 0.0 0.0 0.00 0.00 0.00 83 1011.9
20260510000506 20 78 0.0 0.0 0.00 0.00 0.00 83 1011.8
20260510000305 20 78 0.0 0.0 0.00 0.00 0.00 83 1011.8
20260509235901 20 78 0.0 0.0 0.00 0.00 0.00 82 1011.7
20260509235704 20 78 0.0 0.0 0.00 0.00 0.00 82 1011.7
20260509235504 21 78 0.0 0.0 0.00 0.00 0.00 82 1011.7
20260509235101 21 78 0.0 0.0 0.00 0.00 0.00 82 1011.7
20260509234900 21 78 0.0 0.0 0.00 0.00 0.00 81 1011.7
20260509234457 21 78 0.0 0.0 0.00 0.00 0.00 81 1011.6
20260509234257 21 78 0.0 0.0 0.00 0.00 0.00 81 1011.6
20260509234054 21 78 0.0 0.0 0.00 0.00 0.00 81 1011.5
20260509233852 21 78 0.0 0.0 0.00 0.00 0.00 80 1011.4
20260509233650 21 78 0.0 0.0 0.00 0.00 0.00 80 1011.3
20260509233448 21 78 0.0 0.0 0.00 0.00 0.00 80 1011.4
20260509233249 21 78 0.0 0.0 0.00 0.00 0.00 79 1011.3
20260509233049 21 78 0.0 0.0 0.00 0.00 0.00 79 1011.3
20260509232848 21 78 0.0 0.0 0.00 0.00 0.00 79 1011.3
20260509232647 21 78 0.0 0.0 0.00 0.00 0.00 79 1011.3
20260509232244 21 78 0.0 0.0 0.00 0.00 0.00 79 1011.3
20260509232043 21 78 0.0 0.0 0.00 0.00 0.00 79 1011.4
20260509231843 21 78 0.0 0.0 0.00 0.00 0.00 78 1011.3
20260509231643 21 78 0.0 0.0 0.00 0.00 0.00 78 1011.3
20260509231042 22 78 0.0 0.0 0.00 0.00 0.00 77 1011.2
20260509230841 22 78 0.0 0.0 0.00 0.00 0.00 77 1011.1
20260509230640 22 78 0.0 0.0 0.00 0.00 0.00 77 1011.1
20260509230441 22 78 0.0 0.0 0.00 0.00 0.00 76 1011.0
20260509230239 22 78 0.0 0.0 0.00 0.00 0.00 76 1011.0
20260509225634 22 78 0.0 0.0 0.00 0.00 0.00 76 1011.0
20260509225432 22 78 0.0 1.6 0.00 0.00 0.00 76 1011.0
20260509225231 22 73 0.0 3.2 0.00 0.00 0.00 75 1011.0
20260509225029 22 73 0.0 3.2 0.00 0.00 0.00 75 1010.9
20260509224828 22 73 1.6 3.2 0.00 0.00 0.00 75 1010.9
20260509224627 22 73 1.6 3.2 0.00 0.00 0.00 75 1010.9
20260509224425 22 73 0.0 3.2 0.00 0.00 0.00 76 1011.0
20260509224222 22 70 0.0 3.2 0.00 0.00 0.00 76 1011.0
20260509223821 22 70 0.0 3.2 0.00 0.00 0.00 76 1011.0
20260509223621 22 69 0.0 3.2 0.00 0.00 0.00 76 1011.0
20260509223421 22 69 0.0 4.8 0.00 0.00 0.00 75 1011.0
20260509223218 22 70 0.0 4.8 0.00 0.00 0.00 75 1010.9
20260509223016 22 70 0.0 4.8 0.00 0.00 0.00 76 1011.0
20260509222817 22 70 1.6 4.8 0.00 0.00 0.00 75 1011.0
20260509222614 22 69 1.6 4.8 0.00 0.00 0.00 76 1011.1
20260509222416 22 90 1.6 4.8 0.00 0.00 0.00 75 1011.1
20260509222213 22 91 1.6 4.8 0.00 0.00 0.00 75 1011.2
20260509222014 22 254 1.6 4.8 0.00 0.00 0.00 75 1011.1
20260509221613 22 0 1.6 4.8 0.00 0.00 0.00 75 1011.0
20260509221415 22 5 1.6 4.8 0.00 0.00 0.00 75 1011.0
20260509221014 22 123 1.6 4.8 0.00 0.00 0.00 75 1010.9
20260509220813 22 77 1.6 4.8 0.00 0.00 0.00 75 1010.9
20260509220614 22 78 1.6 4.8 0.00 0.00 0.00 74 1010.9
20260509220412 22 78 1.6 4.8 0.00 0.00 0.00 74 1010.9
20260509220010 22 339 1.6 6.4 0.00 0.00 0.00 74 1011.0
20260509215809 22 338 3.2 6.4 0.00 0.00 0.00 74 1011.0
20260509215605 22 351 3.2 6.4 0.00 0.00 0.00 74 1011.0
20260509215204 22 221 3.2 8.0 0.00 0.00 0.00 74 1011.2
20260509214802 22 336 1.6 8.0 0.00 0.00 0.00 75 1011.0
20260509214601 22 294 1.6 8.0 0.00 0.00 0.00 76 1011.0
20260509214400 22 294 1.6 8.0 0.00 0.00 0.00 77 1011.0
20260509214001 22 329 1.6 8.0 0.00 0.00 0.00 75 1010.9
20260509213758 22 277 1.6 8.0 0.00 0.00 0.00 75 1011.0
20260509213558 22 117 1.6 8.0 0.00 0.00 0.00 76 1011.0
20260509213358 22 117 1.6 8.0 0.00 0.00 0.00 76 1011.0
20260509213157 22 92 1.6 4.8 0.00 0.00 0.00 75 1011.1
20260509212959 22 27 0.0 4.8 0.00 0.00 0.00 76 1011.1
20260509212759 22 32 0.0 3.2 0.00 0.00 0.00 78 1011.1
20260509212556 22 31 0.0 3.2 0.00 0.00 0.00 76 1011.1
20260509212357 22 30 0.0 3.2 0.00 0.00 0.00 77 1011.0
20260509212154 22 30 1.6 3.2 0.00 0.00 0.00 77 1010.9
20260509211549 22 30 1.6 3.2 0.00 0.00 0.00 77 1011.0
20260509211350 22 321 0.0 3.2 0.00 0.00 0.00 78 1010.9
20260509211150 22 355 0.0 3.2 0.00 0.00 0.00 79 1010.9
20260509210748 22 57 0.0 3.2 0.00 0.00 0.00 78 1010.7
20260509210346 22 56 0.0 3.2 0.00 0.00 0.00 78 1010.6
20260509210145 22 56 0.0 3.2 0.00 0.00 0.00 78 1010.7
20260509205743 21 134 1.6 4.8 0.00 0.00 0.00 77 1010.8
20260509205541 21 172 1.6 4.8 0.00 0.00 0.00 77 1010.8
20260509205342 21 173 1.6 4.8 0.00 0.00 0.00 77 1010.9
20260509204942 22 342 1.6 4.8 0.00 0.00 0.00 77 1011.0
20260509204742 22 355 1.6 4.8 0.00 0.00 0.00 77 1011.0
20260509204542 22 86 1.6 4.8 0.00 0.00 0.00 76 1011.0
20260509204344 22 87 1.6 4.8 0.00 0.00 0.00 76 1011.0
20260509204141 22 85 1.6 4.8 0.00 0.00 0.00 76 1011.0
20260509203942 22 84 1.6 4.8 0.00 0.00 0.00 76 1011.0
20260509203743 21 98 1.6 4.8 0.00 0.00 0.00 76 1011.0
20260509203542 21 98 1.6 4.8 0.00 0.00 0.00 76 1011.0
20260509203343 21 100 1.6 4.8 0.00 0.00 0.00 76 1011.0
20260509203142 21 101 0.0 4.8 0.00 0.00 0.00 75 1010.9
20260509202941 21 101 0.0 4.8 0.00 0.00 0.00 75 1010.9
20260509202743 21 96 0.0 3.2 0.00 0.00 0.00 75 1011.0
20260509202541 21 107 0.0 1.6 0.00 0.00 0.00 76 1011.0
20260509202139 21 105 0.0 4.8 0.00 0.00 0.00 77 1011.0
20260509201937 21 105 1.6 4.8 0.00 0.00 0.00 76 1011.0
20260509201737 21 105 1.6 4.8 0.00 0.00 0.00 76 1011.0
20260509201539 21 105 1.6 4.8 0.00 0.00 0.00 76 1011.1
20260509201339 21 105 1.6 4.8 0.00 0.00 0.00 76 1011.1
20260509200739 21 119 1.6 8.0 0.00 0.00 0.00 75 1011.0
20260509200536 21 119 1.6 8.0 0.00 0.00 0.00 75 1011.0
20260509200336 21 119 1.6 8.0 0.00 0.00 0.00 76 1011.0
20260509200137 21 117 1.6 8.0 0.00 0.00 0.00 77 1011.0
20260509195933 21 81 1.6 8.0 0.00 0.00 0.00 77 1011.1
20260509195731 21 52 1.6 4.8 0.00 0.00 0.00 77 1011.1
20260509195533 21 52 1.6 4.8 0.00 0.00 0.00 77 1011.1
20260509195330 21 52 1.6 4.8 0.00 0.00 0.00 76 1011.1
20260509195132 21 52 1.6 4.8 0.00 0.00 0.00 76 1011.1
20260509194731 22 86 1.6 4.8 0.00 0.00 0.00 76 1011.1
20260509194529 22 125 1.6 4.8 0.00 0.00 0.00 76 1011.2
20260509194129 22 132 1.6 4.8 0.00 0.00 0.00 75 1011.3
20260509193928 22 132 1.6 4.8 0.00 0.00 0.00 75 1011.3
20260509193729 22 98 1.6 4.8 0.00 0.00 0.00 74 1011.3
20260509193528 22 97 1.6 4.8 0.00 0.00 0.00 74 1011.4
20260509193327 22 97 1.6 4.8 0.00 0.00 0.00 74 1011.4
20260509193126 22 206 1.6 4.8 0.00 0.00 0.00 74 1011.4
20260509192722 22 96 1.6 4.8 0.00 0.00 0.00 74 1011.4
20260509192321 22 5 1.6 4.8 0.00 0.00 0.00 73 1011.4
20260509191718 22 180 1.6 4.8 0.00 0.00 0.00 72 1011.5
20260509191516 22 179 1.6 4.8 0.00 0.00 0.00 72 1011.5
20260509191316 22 186 1.6 6.4 0.00 0.00 0.00 72 1011.5
20260509191114 22 259 1.6 6.4 0.00 0.00 0.00 72 1011.5
20260509190714 22 67 1.6 6.4 0.00 0.00 0.00 71 1011.4
20260509190515 22 193 1.6 6.4 0.00 0.00 0.00 71 1011.4
20260509190312 22 36 1.6 8.0 0.00 0.00 0.00 72 1011.4
20260509190112 22 36 1.6 8.0 0.00 0.00 0.00 72 1011.4
20260509185712 22 36 1.6 8.0 0.00 0.00 0.00 71 1011.4
20260509185511 22 49 1.6 8.0 0.00 0.00 0.00 70 1011.5
20260509185310 22 234 1.6 8.0 0.00 0.00 0.00 72 1011.6
20260509185107 22 52 1.6 8.0 0.00 0.00 0.00 72 1011.5
20260509184906 22 101 1.6 8.0 0.00 0.00 0.00 71 1011.5
20260509184706 22 277 1.6 8.0 0.00 0.00 0.00 71 1011.6
20260509184506 22 267 1.6 8.0 0.00 0.00 0.00 72 1011.7
20260509184106 22 113 1.6 4.8 0.00 0.00 0.00 73 1011.7
20260509183905 22 196 1.6 4.8 0.00 0.00 0.00 72 1011.7
20260509183704 22 196 3.2 6.4 0.00 0.00 0.00 72 1011.6
20260509183504 22 201 3.2 6.4 0.00 0.00 0.00 71 1011.6
20260509183305 22 176 3.2 6.4 0.00 0.00 0.00 71 1011.6
20260509182901 22 32 3.2 6.4 0.00 0.00 0.00 72 1011.6
20260509182502 22 77 3.2 14.5 0.00 0.00 0.00 71 1011.6
20260509182306 22 172 3.2 14.5 0.00 0.00 0.00 70 1011.7
20260509182102 22 151 3.2 14.5 0.00 0.00 0.00 71 1011.7
20260509181659 22 100 1.6 4.8 0.00 0.00 0.00 71 1011.8
20260509181500 22 67 1.6 4.8 0.00 0.00 0.00 70 1011.8
20260509181300 22 123 1.6 4.8 0.00 0.00 0.00 70 1011.8
20260509181101 22 123 1.6 6.4 0.00 0.00 0.00 71 1011.8
20260509180901 22 72 1.6 6.4 0.00 0.00 0.00 71 1011.7
20260509180700 22 71 3.2 6.4 0.00 0.00 0.00 70 1011.7
20260509180459 22 47 3.2 6.4 0.00 0.00 0.00 70 1011.8
20260509180300 22 350 3.2 6.4 0.00 0.00 0.00 69 1011.9
20260509175857 22 342 1.6 8.0 0.00 0.00 0.00 70 1012.0
20260509175656 22 209 1.6 8.0 0.00 0.00 0.00 69 1012.1
20260509175457 22 104 1.6 8.0 0.00 0.00 0.00 69 1012.1
20260509175257 22 103 1.6 8.0 0.00 0.00 0.00 70 1012.1
20260509175055 22 28 1.6 8.0 0.00 0.00 0.00 69 1012.2
20260509174855 22 24 1.6 8.0 0.00 0.00 0.00 68 1012.2
20260509174655 22 71 3.2 8.0 0.00 0.00 0.00 68 1012.3
20260509174456 22 197 3.2 9.7 0.00 0.00 0.00 67 1012.3
20260509174256 22 77 3.2 9.7 0.00 0.00 0.00 68 1012.3
20260509173657 22 314 3.2 9.7 0.00 0.00 0.00 68 1012.3
20260509173456 21 300 3.2 9.7 0.00 0.00 0.00 68 1012.3
20260509173256 21 79 3.2 9.7 0.00 0.00 0.00 68 1012.3
20260509173056 21 81 1.6 9.7 0.00 0.00 0.00 67 1012.3
20260509172658 21 182 1.6 9.7 0.00 0.00 0.00 68 1012.3
20260509172456 21 26 1.6 6.4 0.00 0.00 0.00 67 1012.4
20260509172256 21 284 3.2 6.4 0.00 0.00 0.00 67 1012.4
20260509172056 21 313 3.2 6.4 0.00 0.00 0.00 68 1012.5
20260509171856 21 106 1.6 6.4 0.00 0.00 0.00 67 1012.5
20260509171656 21 57 3.2 8.0 0.00 0.00 0.00 68 1012.5
20260509171456 21 136 3.2 8.0 0.00 0.00 0.00 69 1012.6
20260509171255 21 71 3.2 8.0 0.00 0.00 0.00 69 1012.5
20260509170858 21 86 3.2 8.0 0.00 0.00 0.00 70 1012.5
20260509170655 21 127 3.2 8.0 0.00 0.00 0.00 71 1012.7
20260509170456 21 64 3.2 9.7 0.00 0.00 0.00 70 1012.7
20260509170255 21 63 3.2 9.7 0.00 0.00 0.00 70 1012.6
20260509165857 21 222 3.2 9.7 0.00 0.00 0.00 70 1012.7
20260509165656 21 186 3.2 9.7 0.00 0.00 0.00 69 1012.7
20260509165456 21 284 3.2 8.0 0.00 0.00 0.00 70 1012.8
20260509165255 21 51 3.2 8.0 0.00 0.00 0.00 71 1012.8
20260509165056 21 51 3.2 8.0 0.00 0.00 0.00 71 1012.9
20260509164857 21 105 1.6 8.0 0.00 0.00 0.00 71 1013.0
20260509164655 21 84 1.6 4.8 0.00 0.00 0.00 70 1013.1
20260509164455 21 355 1.6 8.0 0.00 0.00 0.00 70 1013.2
20260509164257 21 355 1.6 8.0 0.00 0.00 0.00 70 1013.2
20260509164056 21 121 1.6 8.0 0.00 0.00 0.00 68 1013.2
20260509163456 21 105 3.2 9.7 0.00 0.00 0.00 70 1013.2
20260509163057 21 126 1.6 9.7 0.00 0.00 0.00 70 1013.2
20260509162856 21 140 1.6 11.3 0.00 0.00 0.00 71 1013.2